This is the latest recevied weather packets stored in our database for station/object DG8SF-13. If no packets are shown the sender has not sent any weather packets the latest 10 day(s).
| Time | Temp. | Humidity | Pressure | Rain* | Wind** | Luminosity | Snow |
|---|---|---|---|---|---|---|---|
| 1787577821 | 25.56° C | 42% | 1017.2 hPa | 0 mm | - | - | - |
| 1787577511 | 25.56° C | 41% | 1017.3 hPa | 0 mm | - | - | - |
| 1787577197 | 25° C | 41% | 1017.3 hPa | 0 mm | - | - | - |
| 1787576888 | 25.56° C | 40% | 1017.4 hPa | 0 mm | - | - | - |
| 1787576573 | 25.56° C | 41% | 1017.5 hPa | 0 mm | - | - | - |
| 1787576264 | 25.56° C | 42% | 1017.6 hPa | 0 mm | - | - | - |
| 1787575938 | 24.44° C | 42% | 1017.8 hPa | 0 mm | - | - | - |
| 1787575625 | 25° C | 41% | 1017.8 hPa | 0 mm | - | - | - |
| 1787575315 | 25° C | 41% | 1017.8 hPa | 0 mm | - | - | - |
| 1787575001 | 24.44° C | 44% | 1017.9 hPa | 0 mm | - | - | - |
| 1787574692 | 25° C | 43% | 1017.9 hPa | 0 mm | - | - | - |
| 1787574377 | 24.44° C | 43% | 1017.9 hPa | 0 mm | - | - | - |
| 1787574065 | 23.89° C | 44% | 1018 hPa | 0 mm | - | - | - |
| 1787573742 | 23.33° C | 44% | 1018.1 hPa | 0 mm | - | - | - |
| 1787573428 | 23.33° C | 45% | 1018.2 hPa | 0 mm | - | - | - |
| 1787573117 | 23.89° C | 45% | 1018.1 hPa | 0 mm | - | - | - |
| 1787572805 | 23.89° C | 44% | 1018.1 hPa | 0 mm | - | - | - |
| 1787572484 | 24.44° C | 44% | 1018.3 hPa | 0 mm | - | - | - |
| 1787572171 | 24.44° C | 44% | 1018.3 hPa | 0 mm | - | - | - |
| 1787571857 | 24.44° C | 44% | 1018.4 hPa | 0 mm | - | - | - |
| 1787571548 | 25.56° C | 44% | 1018.4 hPa | 0 mm | - | - | - |
| 1787571234 | 24.44° C | 46% | 1018.3 hPa | 0 mm | - | - | - |
| 1787570927 | 24.44° C | 47% | 1018.5 hPa | 0 mm | - | - | - |
| 1787570586 | 23.89° C | 46% | 1018.5 hPa | 0 mm | - | - | - |
| 1787570251 | 24.44° C | 46% | 1018.6 hPa | 0 mm | - | - | - |
* Rain latest hour (hover to see other rain measurements)
** Current wind speed in m/s (hover to see current wind gust speed)